パンスターズ彗星

C/2020 U5 ( PanSTARRS )

English version
Home page
Updated on May 16, 2022

---------------------------------------------------------------------

・ プロフィール

発見日 2020年10月22日
発見光度 20.4等
発見者 Pan-STARRS 1 telescope (Haleakala)

・ 写真集

・ 軌道要素

Epoch 2022 Jan. 21.0 TT = JDT 2459600.5
T 2022 Apr. 27.87706 TT                                 Rudenko
q   3.7559487            (2000.0)            P               Q
z  +0.0001629      Peri.   75.41529     +0.04187640     +0.31881900
 +/-0.0000015      Node   107.33755     -0.12784094     -0.93822154
e   0.9993881      Incl.   97.27081     +0.99091022     -0.13451684
From 499 observations 2020 Sept. 25-2022 Jan. 30, mean residual 0".4.

・ 星図

・ 光度変化

        m1 = 8.3 + 5 logΔ + 10.0 log r(t + 180)

---------------------------------------------------------------------

軌道要素はM.P.E.C. 2022-C56に掲載されたものです。
星図はステラナビゲータ Ver.10 (アストロアーツ) で作成したものです。
光度グラフはComet for Windowsで作成したものです。

---------------------------------------------------------------------

Copyright(C) Seiichi Yoshida (comet@aerith.net). All rights reserved.